Showing default

FLOCK 4Q 21, 58329

Orbit data source: Space-Track

FLOCK 4Q 21, 58329 is a payload satellite owned by Planet (US) in SSO that was launched on Sat, 11 Nov 2023 UTC via an FALCON 9 launch vehicle from the Air Force Western Test Range (AFWTR). Payload-class satellites include a variety of spacecraft equipped with specific instruments for various scientific and technological missions. These include communications satellites like Starlink; space stations such as the ISS; scientific satellites like the Hubble; Earth observation satellites from companies like Planet Labs, Umbra, and HawkEye 360; GPS; miniature CubeSats for education and research; and military/defense satellites.

Loading next visibility...
Identifier
58329, 2023-174CB
Orbit
SSO
Country
Flag of USUS
Related business
Manufacturer
Planet
Mission
Non-operational Commercial Imaging
Bus & Motor
CUBESAT 3U, Unknown motor
Mass
5.7 kg wet, 5.7 kg dry
Launch date (UTC)
2023-11-11 (2 years ago)
Launch vehicle
FALCON 9
Launch site
Air Force Western Test Range (AFWTR)
Object type
Payload
Rocket body
Debris
Shape & HBR
Box + 2 Pan, 1.0 m
Radar Cross Section
0.072 m², Medium (>0.1 m² and < 1m²)

Expand to show TLE details & history
Last TLE update: 5 hours ago

TLE from 5 hours ago
0 FLOCK 4Q 21
1 58329U 23174CB  26126.82923898  .00140262  00000-0  10731-2 0  9999
2 58329  97.3872 220.8155 0007573 264.1100  95.9300 15.71687250139577
Epoch: 2026-05-06T19:54Z
TLE epoch observation values (Epoch: 2026-05-06T19:54:06.247Z)
Latitude
-0.00004°
Longitude
57.60536°
Altitude
357.766 km
Speed
7.694 km/s
True Right ascension
14h 43m 15s
True Declination
0° 00' 00"
Sunlit
Object was in full shadow at epoch
Visualization orbit readout
Latitude
Unknown
Longitude
Unknown
Altitude
Unknown
Speed
Unknown
Apparent Right ascension
Unknown
Apparent Declination
Unknown
Sunlit
N/A
Visualization observer readout
Local Sidereal Time
09:19:14
Azimuth
Unknown
Elevation
Unknown
Doppler factor
Unknown
Orbital elements
Apogee altitude
356.067 km
Perigee altitude
345.875 km
Semi-major axis
6,729.108 km
Eccentricity
0.00076
Inclination
97.3872°
RAAN
220.8155°
Arg. of periapsis
264.11°
True anomaly
96.01631°
Mean anomaly
95.93°
Eccentric anomaly
95.97315°
Mean motion
3.93194 °/min
Orbital period
91.56 mins
BSTAR
0.0010731
Loading maneuver chart data...
Computing Atmospheric mass density...
Loading historical data...
Loading historical data...
Loading historical data...
Loading historical data...
Loading historical data...
Loading historical data...
Loading historical data...

Documentation

Showing up to 5 results
|